Regional Weather Roundup
Issued by NWS

Home | Current Version | Previous Version | Graphics & Text | Print | Product List | Glossary On
Versions: 1 2 3 4 5 6 7 8 9 10 11 12 13 14 15 16 17 18 19 20 21 22 23 24 25 26 27 28 29 30 31 32 33 34 35 36 37 38 39 40 41 42 43 44 45 46 47 48 49 50
722
ASUS45 KSLC 231310
RWRUT

UTAH REGIONAL WEATHER ROUNDUP
NATIONAL WEATHER SERVICE SALT LAKE CITY UT
700 AM MDT THU MAR 23 2017

UTZ001>011-023>025-231400-

NORTHERN UTAH

CITY           SKY/WX    TMP DP  RH WIND       PRES   REMARKS
BRIGHAM CITY     N/A     46  35  66 N10       29.75R
HILL AFB       LGT RAIN  38  36  93 S10       29.74S WCI  31
LOGAN          LGT RAIN  44  37  76 N17       29.75R
OGDEN          LGT RAIN  40  38  93 SE8       29.73S WCI  34
SALT LAKE CITY LGT RAIN  39  37  92 E8        29.74F WCI  33
WENDOVER       CLOUDY    43  30  61 NW16G24   29.81R
HEBER CITY     MIX PCPN  39  36  87 CALM      29.71R

$$

UTZ011>015-024>027-231400-

CENTRAL/NORTHEAST UTAH

CITY           SKY/WX    TMP DP  RH WIND       PRES   REMARKS
PROVO AIRPORT  LGT RAIN  41  38  89 S9        29.75S
MOAB/CANYONLAN CLOUDY    50  37  61 S10       29.72F
DELTA          CLOUDY    37  37 100 SW8       29.79R WCI  31
PRICE          CLOUDY    39  39 100 CALM      29.73R
RICHFIELD      CLOUDY    41  39  93 SW8       29.79
ROOSEVELT      CLOUDY    41  37  87 CALM      29.75S
VERNAL         CLOUDY    43  40  89 W6        29.72S

$$

UTZ013>016-019>022-027-231400-

SOUTHERN UTAH

CITY           SKY/WX    TMP DP  RH WIND       PRES   REMARKS
BRYCE CANYON   FLURRIES  30  28  92 CALM      29.81F
CEDAR CITY     MOCLDY    35  31  85 S5        29.80R WCI  31
MILFORD        CLOUDY   N/A N/A N/A SW5       29.78R
ST GEORGE      CLOUDY    46  40  79 SE8       29.82R
HANKSVILLE     CLOUDY    45  37  76 SE6       29.76R
KANAB          CLEAR     36  36 100 CALM      29.87
BLANDING       CLOUDY    40  32  71 SW5       29.90R

$$

REGIONAL REPORTS     COLORADO/ARIZONA

CITY           SKY/WX    TMP DP  RH WIND       PRES   REMARKS
CRAIG, CO      CLOUDY    38  31  76 CALM      29.75R
GRAND JUNCTION PTCLDY    50  40  68 VRB3      29.74R
RIFLE, CO      PTCLDY    55  23  28 S10G23    29.74S
MONTROSE, CO   CLEAR     49  27  42 SW9       29.79S
CORTEZ, CO     PTCLDY    39  32  76 NW5       29.84S
COLORADO CITY  CLOUDY    41  37  87 E3        29.87R
PAGE, AZ       CLOUDY    46  32  58 S10       29.80S
GRAND CANYON   LGT SNOW  33  33 100 S7        29.86R FOG     WCI  27
KINGMAN, AZ    PTCLDY    41  30  65 SW9       29.87R
FLAGSTAFF, AZ  LGT SNOW  31  30  96 S7        29.88R VSB 1   WCI  24

$$

REGIONAL REPORTS    NEVADA/IDAHO/WYOMING

CITY           SKY/WX    TMP DP  RH WIND       PRES   REMARKS
LAS VEGAS, NV  MOCLDY    54  28  36 CALM      29.81R
ELY, NY        FLURRIES  32  32 100 NW6       29.84R WCI  26
ELKO, NV       CLOUDY    38  33  82 NE3       29.90R
POCATELLO, ID  CLOUDY    39  37  92 SW13      29.81R WCI  31
BURLEY, ID     CLOUDY    37  32  82 W14G23    29.83R WCI  28
FORT BRIDGER,  LGT RAIN  37  37 100 S3        29.72S
EVANSTON, WY   LGT SNOW  32  29  88 NW8       29.72R VSB 3/4 WCI  25
ROCK SPRINGS,  CLOUDY    36  33  89 E7        29.69F WCI  30
KEMMERER, WY   LGT SNOW  32  32 100 N10       29.72S WCI  24

$$




USA.gov is the U.S. government's official web portal to all federal, state and local government web resources and services.